sat.trackr.live / text

‹ back to catalog

STARLINK-35130

NORAD 65740 · 2025-216G

PAYLOAD ACTIVE UNKNOWN

§ Identity

Operator
Country
US
Launch date
2025-09-25
Launch site
AFETR
Launch vehicle
Mass (kg)
RCS (m²)

Purposes: comms

External: N2YO · Heavens-Above · Gunter

§ Orbital elements

Epoch: 2026-09-19T22:47:06.806112Z

Period
93.85 min
Inclination
53.1589°
Eccentricity
0.0001340
Mean motion
15.34400949 rev/d
Perigee alt
461.8 km
Apogee alt
463.6 km
Semi-major
6,840.8 km
B*
2.9567e-4
RAAN
148.5887°
Arg perigee
92.0276°
Mean anomaly
268.0880°
Rev number
5,636

§ Raw data

STARLINK-351301 65740U 25216G   26262.94938433  .00009627  00000+0  29567-3 0  99942 65740  53.1589 148.5887 0001340  92.0276 268.0880 15.34400949 56361

JSON: /api/v1/satellites/65740 · /tle

For live sub-satellite position, see the globe view (requires WebGL).

§ Visibility from observer

Set your observer location to see the next 7 days of passes ≥ 10°. The values pass through the URL so the page stays shareable.

No JS? Fill the form by hand. The geolocation button needs JavaScript.